FW2916 Weather Reports


Display with metric or nautical units.
time (UTC)temp
F
wind
direction
speed
MPH
gust
MPH
rain 1hr
in
rain 24hr
in
rain mn
in
humidity
%
barometer
mb
20260902170046 95 143 2.0 9.0 0.00 0.00 0.00 55 1015.8
20260902164544 95 195 3.0 9.0 0.00 0.00 0.00 56 1016.0
20260902163053 94 178 1.0 7.0 0.00 0.00 0.00 58 1016.1
20260902161547 92 142 3.0 9.0 0.00 0.00 0.00 59 1016.0
20260902160049 92 236 0.0 7.0 0.00 0.00 0.00 62 1016.1
20260902154553 90 177 3.0 8.0 0.00 0.00 0.00 62 1016.2
20260902153051 90 233 2.0 8.0 0.00 0.00 0.00 63 1016.1
20260902151550 89 106 1.0 9.0 0.00 0.00 0.00 63 1016.1
20260902150043 89 167 1.0 7.0 0.00 0.00 0.00 65 1016.1
20260902144541 87 310 3.0 6.0 0.00 0.00 0.00 65 1016.0
20260902143049 86 183 2.0 10.0 0.00 0.00 0.00 67 1016.2
20260902141551 85 117 1.0 8.0 0.00 0.00 0.00 69 1016.1
20260902140050 84 205 1.0 8.0 0.00 0.00 0.00 69 1016.2
20260902134541 83 258 2.0 8.0 0.00 0.00 0.00 70 1016.2
20260902133052 82 188 1.0 6.0 0.00 0.00 0.00 71 1016.1
20260902131549 80 0 1.0 4.0 0.00 0.00 0.00 74 1016.1
20260902130041 78 0 0.0 3.0 0.00 0.00 0.00 77 1016.0
20260902124542 77 141 0.0 3.0 0.00 0.00 0.00 79 1015.9
20260902123040 76 203 0.0 3.0 0.00 0.00 0.00 79 1015.8
20260902121549 76 240 0.0 1.0 0.00 0.00 0.00 79 1015.7
20260902120043 76 191 0.0 3.0 0.00 0.00 0.00 78 1015.7
20260902114609 76 0 0.0 3.0 0.00 0.00 0.00 78 1015.6
20260902113045 76 0 0.0 2.0 0.00 0.00 0.00 79 1015.2
20260902111552 76 247 0.0 1.0 0.00 0.00 0.00 78 1015.2
20260902110040 76 0 0.0 1.0 0.00 0.00 0.00 78 1015.1
20260902104540 76 0 0.0 2.0 0.00 0.00 0.00 78 1015.1
20260902103103 75 0 0.0 1.0 0.00 0.00 0.00 78 1015.1
20260902101546 75 0 0.0 0.0 0.00 0.00 0.00 78 1014.9
20260902100127 75 0 0.0 0.0 0.00 0.00 0.00 78 1014.7
20260902094541 75 0 0.0 0.0 0.00 0.00 0.00 79 1014.9
20260902093102 75 0 0.0 0.0 0.00 0.00 0.00 79 1014.6
20260902091546 75 0 0.0 2.0 0.00 0.00 0.00 79 1014.7
20260902090042 74 0 0.0 0.0 0.00 0.00 0.00 81 1014.6
20260902084545 74 0 0.0 0.0 0.00 0.00 0.00 81 1014.7
20260902083052 73 0 0.0 1.0 0.00 0.00 0.00 83 1014.6
20260902081548 72 0 0.0 0.0 0.00 0.00 0.00 83 1014.4
20260902080045 73 0 0.0 0.0 0.00 0.00 0.00 82 1014.4
20260902074542 74 0 0.0 0.0 0.00 0.00 0.00 80 1014.3
20260902073045 75 0 0.0 0.0 0.00 0.00 0.00 78 1014.3
20260902071548 77 0 0.0 2.0 0.00 0.00 0.00 77 1014.2
20260902070044 77 0 0.0 1.0 0.00 0.00 0.00 76 1014.3
20260902064544 77 0 0.0 0.0 0.00 0.00 0.00 76 1014.6
20260902063040 76 148 0.0 0.0 0.00 0.00 0.00 78 1014.5
20260902061556 74 0 0.0 0.0 0.00 0.00 0.00 79 1014.5
20260902060054 75 0 0.0 0.0 0.00 0.00 0.00 78 1014.3
20260902054542 76 0 0.0 0.0 0.00 0.00 0.00 75 1014.4
20260902053052 76 0 0.0 0.0 0.00 0.00 0.00 74 1014.2
20260902051547 76 0 0.0 0.0 0.00 0.00 0.00 74 1014.3
20260902050044 76 0 0.0 0.0 0.00 0.00 0.00 75 1014.3
20260902044542 76 0 0.0 0.0 0.00 0.00 0.00 74 1014.4
20260902043040 77 0 0.0 0.0 0.00 0.00 0.00 73 1014.4
20260902041604 77 0 0.0 0.0 0.00 0.00 0.00 72 1014.4
20260902040048 77 0 0.0 0.0 0.00 0.00 0.00 73 1014.4
20260902034542 77 0 0.0 0.0 0.00 0.00 0.00 75 1014.5
20260902033051 77 0 0.0 0.0 0.00 0.00 0.00 73 1014.4
20260902031559 78 0 0.0 0.0 0.00 0.00 0.00 72 1014.4
20260902030056 79 0 0.0 0.0 0.00 0.00 0.00 72 1014.1
20260902024604 79 0 0.0 0.0 0.00 0.00 0.00 71 1014.0
20260902023101 80 0 0.0 0.0 0.00 0.00 0.00 71 1014.0
20260902021555 81 0 0.0 0.0 0.00 0.00 0.00 69 1014.0
20260902020040 82 0 0.0 0.0 0.00 0.00 0.00 68 1013.7
20260902014550 83 0 0.0 0.0 0.00 0.00 0.00 66 1013.6
20260902013045 84 0 0.0 0.0 0.00 0.00 0.00 64 1013.5
20260902011541 85 0 0.0 0.0 0.00 0.00 0.00 62 1013.4
20260902010040 87 0 0.0 0.0 0.00 0.00 0.00 59 1013.4
20260902004553 89 0 0.0 0.0 0.00 0.00 0.00 55 1013.4
20260902003049 91 0 0.0 0.0 0.00 0.00 0.00 51 1013.4
20260902001541 93 0 0.0 0.0 0.00 0.00 0.00 48 1013.5
20260902000040 94 0 0.0 1.0 0.00 0.00 0.00 46 1013.6
20260901234602 96 0 0.0 3.0 0.00 0.00 0.00 43 1013.6
20260901233103 98 205 0.0 5.0 0.00 0.00 0.00 41 1013.7
20260901231542 99 207 1.0 7.0 0.00 0.00 0.00 40 1013.7
20260901230041 99 0 0.0 5.0 0.00 0.00 0.00 40 1013.6
20260901224553 99 203 2.0 5.0 0.00 0.00 0.00 39 1013.6
20260901223047 100 244 1.0 10.0 0.00 0.00 0.00 39 1013.7
20260901221545 100 131 2.0 10.0 0.00 0.00 0.00 38 1013.7
20260901220044 100 233 2.0 10.0 0.00 0.00 0.00 38 1013.8
20260901214604 100 269 2.0 9.0 0.00 0.00 0.00 38 1013.8
20260901213115 100 214 3.0 10.0 0.00 0.00 0.00 38 1013.8
20260901211542 100 209 3.0 10.0 0.00 0.00 0.00 38 1014.0
20260901210051 101 187 2.0 9.0 0.00 0.00 0.00 38 1014.2
20260901204550 101 66 2.0 7.0 0.00 0.00 0.00 37 1014.4
20260901203113 101 146 2.0 9.0 0.00 0.00 0.00 37 1014.5
20260901201542 101 318 2.0 7.0 0.00 0.00 0.00 39 1014.6
20260901200043 100 186 2.0 9.0 0.00 0.00 0.00 38 1014.8
20260901194557 101 130 2.0 10.0 0.00 0.00 0.00 39 1015.0
20260901193047 100 224 1.0 10.0 0.00 0.00 0.00 40 1015.0
20260901191552 100 180 3.0 8.0 0.00 0.00 0.00 37 1015.2
20260901190052 100 219 3.0 8.0 0.00 0.00 0.00 39 1015.3
20260901184550 100 143 1.0 9.0 0.00 0.00 0.00 41 1015.4
20260901183052 100 0 1.0 6.0 0.00 0.00 0.00 43 1015.8
20260901181543 99 253 2.0 7.0 0.00 0.00 0.00 40 1015.9
20260901180051 98 277 2.0 7.0 0.00 0.00 0.00 43 1016.0
20260901174547 98 288 3.0 8.0 0.00 0.00 0.00 42 1016.2
20260901173055 97 244 2.0 8.0 0.00 0.00 0.00 45 1016.3
20260901171550 96 243 2.0 8.0 0.00 0.00 0.00 49 1016.4